Home   Weather   Rockford   Past weeks
Flag for USA

Past Weather in Rockford, Illinois, USA — Yesterday and Last 2 Weeks

Now
59 °F

Overcast.


Feels Like: 57 °F
Forecast: 71 / 55 °F
Wind: 9 mph from East

Location: Greater Rockford Airport

Current Time: Jun 17, 2019 at 12:00:52 am

Latest Report: Jun 16, 2019 at 11:30 pm


Visibility: 10 mi

Pressure: 29.97 "Hg

Humidity: 84%

Dew Point: 54 °F

Location of RockfordLocation

Past Weather in Rockford — Graph

°F

Rockford Temperature Yesterday

Maximum temperature yesterday: 66 °F (at 4:54 pm)
Minimum temperature yesterday: 53 °F (at 1:54 am)
Average temperature yesterday: 61 °F

High & Low Weather Summary for the Past Weeks

 TemperatureHumidityPressure
High84 °F (Jun 5, 4:54 pm)100% (Jun 2, 3:07 am)30.19 "Hg (Jun 2, 3:07 am)
Low49 °F (Jun 3, 4:54 am)27% (Jun 11, 12:54 pm)29.70 "Hg (Jun 5, 5:54 am)
Average66 °F70%29.93 "Hg
* Reported Jun 1 10:54 pm — Jun 16 10:54 pm, Rockford. Weather by CustomWeather, © 2019

Note: Actual official high and low records may vary slightly from our data, if they occured in-between our weather recording intervals... More about our weather records

Advertising

Rockford Weather History for the Previous 24 Hours

Scroll right to see more
 ConditionsComfort  
Time TempWeatherWind HumidityBarometerVisibility
10:54 pm
Sun, Jun 16
59 °FOvercast.9 mph84%29.97 "Hg10 mi
9:54 pm60 °FOvercast.8 mph80%29.97 "Hg10 mi
8:54 pm63 °FOvercast.5 mph78%29.94 "Hg10 mi
7:54 pm64 °FOvercast.5 mph81%29.92 "Hg10 mi
6:54 pm65 °FOvercast.7 mph78%29.90 "Hg10 mi
5:54 pm65 °FOvercast.6 mph81%29.91 "Hg10 mi
4:54 pm66 °FOvercast.5 mph78%29.91 "Hg10 mi
3:54 pm64 °FOvercast.6 mph84%29.90 "Hg10 mi
2:54 pm63 °FOvercast.7 mph87%29.89 "Hg10 mi
2:33 pm63 °FOvercast.6 mph87%29.90 "Hg10 mi
1:54 pm64 °FLow clouds.10 mph87%29.87 "Hg10 mi
12:54 pm63 °FLow clouds.9 mph87%29.89 "Hg10 mi
11:54 am62 °FFog.8 mph93%29.88 "Hg4 mi
10:54 am62 °FFog.8 mph93%29.88 "Hg5 mi
9:54 am62 °FLow clouds.9 mph93%29.86 "Hg10 mi
8:54 am62 °FLow clouds.5 mph93%29.82 "Hg8 mi
7:54 am60 °FFog.9 mph96%29.82 "Hg3 mi
6:54 am60 °FCool.6 mph96%29.81 "Hg2 mi
6:19 am60 °FCool.7 mph96%29.80 "Hg2 mi
6:11 am60 °FLight rain. Fog.7 mph93%29.80 "Hg3 mi
5:54 am60 °FLight rain. Fog.7 mph93%29.80 "Hg2 mi
4:54 am59 °FLight rain. Fog.8 mph96%29.75 "Hg5 mi
3:54 am59 °FFog.8 mph93%29.74 "Hg4 mi
2:54 am59 °FLight rain. Fog.6 mph93%29.76 "Hg5 mi
1:54 am53 °FLight rain. Fog.7 mph50%29.75 "Hg4 mi
12:54 am60 °FRain. Fog.6 mph96%29.78 "Hg4 mi
Weather by CustomWeather, © 2019

See weather overview